North Las Vegas, NV

7:00 PM PDT on April 19, 2018 (GMT -0700)
North Las Vegas

Weather History for KVGT - March, 2013

Change the Weather History Date:

Monday, March 4, 2013

  Actual Average Record
Temperature  
Mean Temperature 63 °F 56 °F  
Max Temperature 71 °F 67 °F 79 °F (2016)
Min Temperature 55 °F 45 °F 33 °F (2002)
Degree Days  
Heating Degree Days 2 9  
Month to date heating degree days 38  
Since 1 July heating degree days 1799  
Cooling Degree Days 0 0  
Month to date cooling degree days 0  
Year to date cooling degree days 0  
Growing Degree Days 13 (Base 50)    
Moisture  
Dew Point 31 °F    
Average Humidity 33    
Maximum Humidity 51    
Minimum Humidity 16    
Precipitation  
Precipitation 0.00 in 0.04 in 0.09 in (2005)
Month to date precipitation 0.16  
Year to date precipitation 1.74  
Sea Level Pressure  
Sea Level Pressure 30.00 in    
Wind  
Wind Speed 16 mph (North)    
Max Wind Speed 29 mph    
Max Gust Speed 37 mph    
Visibility 10 miles    
Events      
T = Trace of Precipitation, MM = Missing Value Source: NWS Daily Summary

Daily Weather History Graph

Daily Weather History Graph

Search for Another Location

Airport or City:

Astronomy

Mar. 04, 2013 Rise Set
Actual Time 6:06 AM PST 5:38 PM PST
Civil Twilight 5:40 AM PST 6:04 PM PST
Nautical Twilight 5:11 AM PST 6:34 PM PST
Astronomical Twilight 4:41 AM PST 7:04 PM PST
Moon 12:13 AM PST (3/4) 10:31 AM PST (3/4)
Length of Visible Light 12h 23m
Length of Day
11h 32m
Waning Gibbous, 51% of the Moon is Illuminated
Mar 4
Waning Gibbous
Mar 4
Last Quarter
Mar 11
New
Mar 19
First Quarter
Mar 27
Full

Hourly Weather History & Observations

Time (PST) Temp. Dew Point Humidity Pressure Visibility Wind Dir Wind Speed Gust Speed Precip Events Conditions
12:53 AM 59.0 °F 37.9 °F 46% 29.86 in 10.0 mi NW 28.8 mph 36.8 mph N/A   Clear
1:53 AM 57.9 °F 37.9 °F 47% 29.86 in 10.0 mi NNW 15.0 mph 26.5 mph N/A   Partly Cloudy
2:53 AM 57.0 °F 39.0 °F 51% 29.87 in 10.0 mi NNW 21.9 mph - N/A   Clear
3:53 AM 57.0 °F 39.0 °F 51% 29.89 in 10.0 mi NNW 12.7 mph 20.7 mph N/A   Scattered Clouds
4:53 AM 57.0 °F 37.9 °F 49% 29.92 in 10.0 mi North 10.4 mph - N/A   Mostly Cloudy
5:53 AM 55.9 °F 37.9 °F 51% 29.94 in 10.0 mi North 11.5 mph - N/A   Clear
6:53 AM 57.0 °F 37.0 °F 47% 29.96 in 10.0 mi NNW 15.0 mph - N/A   Clear
7:53 AM 60.1 °F 36.0 °F 41% 29.99 in 10.0 mi NNW 24.2 mph 31.1 mph N/A   Clear
8:53 AM 62.1 °F 33.1 °F 34% 30.00 in 10.0 mi NNW 21.9 mph 29.9 mph N/A   Clear
9:53 AM 64.0 °F 32.0 °F 30% 30.02 in 10.0 mi North 18.4 mph 27.6 mph N/A   Clear
10:53 AM 66.0 °F 32.0 °F 28% 30.02 in 10.0 mi North 12.7 mph 21.9 mph N/A   Clear
11:53 AM 68.0 °F 28.9 °F 23% 30.01 in 10.0 mi North 11.5 mph 18.4 mph N/A   Clear
12:53 PM 69.1 °F 28.0 °F 22% 29.99 in 10.0 mi East 4.6 mph - N/A   Clear
1:53 PM 71.1 °F 27.0 °F 19% 30.00 in 10.0 mi Variable 5.8 mph - N/A   Clear
2:53 PM 70.0 °F 25.0 °F 18% 30.01 in 10.0 mi Calm Calm - N/A   Clear
3:53 PM 71.1 °F 23.0 °F 16% 30.00 in 10.0 mi Calm Calm - N/A   Clear
4:53 PM 69.1 °F 21.9 °F 17% 30.01 in 10.0 mi SE 9.2 mph - N/A   Clear
5:53 PM 66.9 °F 19.0 °F 16% 30.04 in 10.0 mi ESE 5.8 mph - N/A   Clear
6:53 PM 64.9 °F 25.0 °F 22% 30.06 in 10.0 mi ENE 11.5 mph 18.4 mph N/A   Clear
7:53 PM 62.1 °F 28.9 °F 29% 30.09 in 10.0 mi East 9.2 mph - N/A   Clear
8:53 PM 61.0 °F 28.9 °F 30% 30.11 in 10.0 mi East 10.4 mph - N/A   Clear
9:53 PM 57.0 °F 28.0 °F 33% 30.12 in 10.0 mi East 5.8 mph - N/A   Clear
11:53 PM 55.0 °F 28.9 °F 37% 30.12 in 10.0 mi SW 4.6 mph - N/A   Clear